Skip Page Navigation
NASA JPL Caltech
NASA Logo - Jet Propulsion Laboratory + View the NASA Portal
+ Center for Near-Earth Object Studies
JPL Home Earth Solar System Stars & Galaxies Technology
JPL Solar System Dynamics
BODIES ORBITS EPHEMERIDES TOOLS PHYSICAL DATA DISCOVERY FAQ SITE MAP
IMPORTANT: The SSD Announcement email list is now available. Major changes are coming in the near future, including possible hostname and/or URL changes. To be notified of such changes, subscribe to this email list.

Please visit this page for more details.


JPL Small-Body Database Browser
Search: [ help ]  
461886 (2006 KT15)
Classification: Main-belt Asteroid          SPK-ID: 2461886
Ephemeris | Orbit Diagram | Orbital Elements | Mission Design | Physical Parameters | Discovery Circumstances | Close-Approach Data ]

[ show orbit diagram ]
Orbital Elements at Epoch 2458600.5 (2019-Apr-27.0) TDB
Reference: JPL 11 (heliocentric ecliptic J2000)
 Element Value Uncertainty (1-sigma)   Units 
e .1303499100697315 7.6113e-08  
a 3.110079837917158 6.4174e-08 au
q 2.704681210734972 2.4841e-07 au
i 11.23180073010163 8.1475e-06 deg
node 71.58420174025837 4.446e-05 deg
peri 264.7841489112171 5.5185e-05 deg
M 47.42002854570752 3.2417e-05 deg
tp 2458336.614793681882
(2018-Aug-06.11479368)
0.00018188 TDB
period 2003.344940692195
5.48
6.2006e-05
1.698e-07
d
yr
n .1796994579853098 5.5619e-09 deg/d
Q 3.515478465099345 7.2539e-08 au
  Orbit Determination Parameters
   # obs. used (total)      90  
   data-arc span      4462 days (12.22 yr)  
   first obs. used      2006-05-20  
   last obs. used      2018-08-07  
   planetary ephem.      DE431  
   SB-pert. ephem.      SB431-N16  
   condition code      0  
   norm. resid. RMS      .53739  
   source      ORB  
   producer      Otto Matic  
   solution date      2019-Jul-14 07:19:17  

Additional Information
 Earth MOID = 1.72417 au 
 Jupiter MOID = 1.92097 au 
 T_jup = 3.177 
[ show covariance matrix ]

Ephemeris | Orbit Diagram | Orbital Elements | Mission Design | Physical Parameters | Discovery Circumstances | Close-Approach Data ]

Physical Parameter Table
Parameter Symbol Value Units Sigma Reference Notes
absolute magnitude H 16.2   n/a MPO456237  

461886 (2006 KT15)          Discovered 2006-May-20 by Spacewatch at Kitt Peak
Reference: Last Updated: 2016-03-24

[ show close-approach data ]
Alternate Designations
 2006 KT15 = 2015 BW109 
Ephemeris | Orbit Diagram | Orbital Elements | Mission Design | Physical Parameters | Discovery Circumstances | Close-Approach Data ]
ABOUT SSD CREDITS/AWARDS PRIVACY/COPYRIGHT GLOSSARY LINKS
FirstGov 2019-Oct-19 05:58 UT
(server date/time)  
NASA Home Page
Site Manager:   Ryan S. Park
Webmaster  Alan B. Chamberlin